Terminal Aerodrome Forecast
Issued by NWS Amarillo, TX

Home | Current Version | Previous Version | Text Only | Print | Product List | Glossary On
Versions: 1 2 3 4 5 6 7 8 9 10 11 12 13 14 15 16
000
FTUS44 KAMA 042320
TAFGUY
TAF
KGUY 042320Z 0500/0524 18017KT P6SM SCT100 BKN200
     FM051500 20019G26KT P6SM FEW250=

USA.gov is the U.S. government's official web portal to all federal, state and local government web resources and services.